| time (UTC) | temp F | wind direction | speed MPH | gust MPH | rain 1hr in | rain 24hr in | rain mn in | humidity % | barometer mb |
| 20260901051731 | 82 | 180 | 1.0 | 3.0 | 0.00 | 0.00 | 0.00 | 73 | 1007.6 |
| 20260901050828 | 82 | 138 | 1.0 | 4.0 | 0.00 | 0.00 | 0.00 | 72 | 1007.6 |
| 20260901043835 | 82 | 180 | 0.0 | 1.0 | 0.00 | 0.00 | 0.00 | 66 | 1007.3 |
| 20260901042834 | 83 | 164 | 1.0 | 4.0 | 0.00 | 0.00 | 0.00 | 66 | 1007.3 |
| 20260901041834 | 83 | 157 | 1.0 | 2.0 | 0.00 | 0.00 | 0.00 | 65 | 1007.3 |
| 20260901040834 | 83 | 157 | 0.0 | 1.0 | 0.00 | 0.00 | 0.00 | 63 | 1007.3 |
| 20260901035832 | 84 | 180 | 0.0 | 0.0 | 0.00 | 0.00 | 0.00 | 62 | 1006.9 |
| 20260901034833 | 84 | 176 | 1.0 | 4.0 | 0.00 | 0.00 | 0.00 | 61 | 1006.9 |
| 20260901033833 | 85 | 138 | 1.0 | 5.0 | 0.00 | 0.00 | 0.00 | 60 | 1006.9 |
| 20260901032832 | 85 | 180 | 0.0 | 0.0 | 0.00 | 0.00 | 0.00 | 59 | 1006.9 |
| 20260901031833 | 85 | 164 | 1.0 | 3.0 | 0.00 | 0.00 | 0.00 | 57 | 1006.9 |
| 20260901030932 | 85 | 158 | 2.0 | 5.0 | 0.00 | 0.00 | 0.00 | 56 | 1006.2 |
| 20260901025933 | 86 | 142 | 1.0 | 5.0 | 0.00 | 0.00 | 0.00 | 54 | 1006.2 |
| 20260901024933 | 86 | 135 | 0.0 | 0.0 | 0.00 | 0.00 | 0.00 | 53 | 1006.2 |
| 20260901024033 | 87 | 146 | 3.0 | 5.0 | 0.00 | 0.00 | 0.00 | 51 | 1005.9 |
| 20260901023036 | 87 | 122 | 2.0 | 4.0 | 0.00 | 0.00 | 0.00 | 49 | 1005.6 |
| 20260901022133 | 87 | 90 | 0.0 | 0.0 | 0.00 | 0.00 | 0.00 | 47 | 1005.2 |
| 20260901021232 | 87 | 90 | 0.0 | 0.0 | 0.00 | 0.00 | 0.00 | 47 | 1004.9 |
| 20260901020233 | 88 | 90 | 0.0 | 0.0 | 0.00 | 0.00 | 0.00 | 46 | 1004.9 |
| 20260901015236 | 88 | 90 | 0.0 | 0.0 | 0.00 | 0.00 | 0.00 | 46 | 1004.5 |
| 20260901014332 | 89 | 90 | 0.0 | 0.0 | 0.00 | 0.00 | 0.00 | 45 | 1004.5 |
| 20260901013334 | 89 | 90 | 0.0 | 0.0 | 0.00 | 0.00 | 0.00 | 44 | 1004.5 |
| 20260901012433 | 90 | 90 | 0.0 | 1.0 | 0.00 | 0.00 | 0.00 | 43 | 1004.5 |
| 20260901011435 | 90 | 90 | 0.0 | 0.0 | 0.00 | 0.00 | 0.00 | 42 | 1004.2 |
| 20260901010532 | 91 | 90 | 0.0 | 0.0 | 0.00 | 0.00 | 0.00 | 42 | 1004.2 |
| 20260901005535 | 91 | 90 | 0.0 | 1.0 | 0.00 | 0.00 | 0.00 | 41 | 1004.2 |
| 20260901004633 | 92 | 90 | 1.0 | 2.0 | 0.00 | 0.00 | 0.00 | 40 | 1004.2 |
| 20260901003633 | 93 | 112 | 0.0 | 2.0 | 0.00 | 0.00 | 0.00 | 39 | 1003.8 |
| 20260901002634 | 94 | 168 | 1.0 | 3.0 | 0.00 | 0.00 | 0.00 | 38 | 1003.5 |
| 20260901001634 | 94 | 135 | 0.0 | 1.0 | 0.00 | 0.00 | 0.00 | 38 | 1003.5 |
| 20260901000633 | 95 | 90 | 1.0 | 4.0 | 0.00 | 0.00 | 0.00 | 36 | 1003.5 |
| 20260831234635 | 96 | 143 | 1.0 | 4.0 | 0.00 | 0.00 | 0.00 | 37 | 1003.2 |
| 20260831233635 | 97 | 180 | 0.0 | 4.0 | 0.00 | 0.00 | 0.00 | 40 | 1003.5 |
| 20260831232634 | 96 | 180 | 0.0 | 5.0 | 0.00 | 0.00 | 0.00 | 39 | 1003.5 |
| 20260831230633 | 97 | 74 | 1.0 | 5.0 | 0.00 | 0.00 | 0.00 | 38 | 1003.5 |
| 20260831225733 | 97 | 135 | 0.0 | 0.0 | 0.00 | 0.00 | 0.00 | 39 | 1003.5 |
| 20260831224734 | 97 | 135 | 0.0 | 2.0 | 0.00 | 0.00 | 0.00 | 39 | 1003.3 |
| 20260831223832 | 99 | 158 | 1.0 | 5.0 | 0.00 | 0.00 | 0.00 | 37 | 1003.2 |
| 20260831222931 | 98 | 233 | 0.0 | 4.0 | 0.00 | 0.00 | 0.00 | 39 | 1003.5 |
| 20260831221933 | 98 | 158 | 3.0 | 7.0 | 0.00 | 0.00 | 0.00 | 36 | 1003.2 |
| 20260831220933 | 98 | 174 | 2.0 | 5.0 | 0.00 | 0.00 | 0.00 | 38 | 1003.5 |
| 20260831215933 | 98 | 199 | 4.0 | 8.0 | 0.00 | 0.00 | 0.00 | 39 | 1003.5 |
| 20260831214933 | 98 | 127 | 1.0 | 3.0 | 0.00 | 0.00 | 0.00 | 38 | 1003.5 |
| 20260831213934 | 98 | 180 | 3.0 | 7.0 | 0.00 | 0.00 | 0.00 | 35 | 1003.8 |
| 20260831212932 | 99 | 177 | 2.0 | 5.0 | 0.00 | 0.00 | 0.00 | 38 | 1003.8 |
| 20260831211934 | 99 | 360 | 0.0 | 2.0 | 0.00 | 0.00 | 0.00 | 40 | 1003.8 |
| 20260831205933 | 97 | 90 | 0.0 | 4.0 | 0.00 | 0.00 | 0.00 | 41 | 1004.5 |
| 20260831205032 | 95 | 180 | 0.0 | 0.0 | 0.00 | 0.00 | 0.00 | 43 | 1004.9 |
| 20260831203034 | 97 | 265 | 0.0 | 2.0 | 0.00 | 0.00 | 0.00 | 41 | 1004.9 |
| 20260831202133 | 96 | 179 | 0.0 | 2.0 | 0.00 | 0.00 | 0.00 | 43 | 1005.6 |
| 20260831201133 | 96 | 135 | 1.0 | 3.0 | 0.00 | 0.00 | 0.00 | 42 | 1005.6 |
| 20260831200132 | 96 | 180 | 0.0 | 2.0 | 0.00 | 0.00 | 0.00 | 43 | 1005.6 |
| 20260831195132 | 96 | 97 | 1.0 | 4.0 | 0.00 | 0.00 | 0.00 | 43 | 1005.6 |
| 20260831194232 | 96 | 160 | 1.0 | 4.0 | 0.00 | 0.00 | 0.00 | 44 | 1005.6 |
| 20260831193233 | 96 | 180 | 1.0 | 3.0 | 0.00 | 0.00 | 0.00 | 45 | 1005.9 |
| 20260831193135 | 96 | 158 | 0.0 | 1.0 | 0.00 | 0.00 | 0.00 | 45 | 1005.9 |
| 20260831192133 | 96 | 156 | 2.0 | 5.0 | 0.00 | 0.00 | 0.00 | 45 | 1006.2 |
| 20260831191232 | 95 | 227 | 1.0 | 5.0 | 0.00 | 0.00 | 0.00 | 46 | 1006.2 |
| 20260831190234 | 94 | 215 | 0.0 | 0.0 | 0.00 | 0.00 | 0.00 | 46 | 1006.6 |
| 20260831185234 | 95 | 150 | 3.0 | 6.0 | 0.00 | 0.00 | 0.00 | 45 | 1006.9 |
| 20260831184234 | 93 | 135 | 2.0 | 4.0 | 0.00 | 0.00 | 0.00 | 46 | 1007.3 |
| 20260831183233 | 94 | 163 | 2.0 | 5.0 | 0.00 | 0.00 | 0.00 | 47 | 1006.9 |
| 20260831182232 | 93 | 180 | 0.0 | 2.0 | 0.00 | 0.00 | 0.00 | 49 | 1007.3 |
| 20260831181235 | 94 | 124 | 0.0 | 0.0 | 0.00 | 0.00 | 0.00 | 50 | 1006.9 |
| 20260831180232 | 93 | 157 | 0.0 | 0.0 | 0.00 | 0.00 | 0.00 | 51 | 1007.6 |
| 20260831175233 | 92 | 175 | 2.0 | 5.0 | 0.00 | 0.00 | 0.00 | 52 | 1008.0 |
| 20260831174234 | 91 | 284 | 1.0 | 5.0 | 0.00 | 0.00 | 0.00 | 52 | 1008.0 |
| 20260831173233 | 91 | 317 | 0.0 | 2.0 | 0.00 | 0.00 | 0.00 | 53 | 1008.3 |
| 20260831172232 | 91 | 157 | 0.0 | 0.0 | 0.00 | 0.00 | 0.00 | 58 | 1008.3 |
| 20260831171332 | 91 | 204 | 3.0 | 6.0 | 0.00 | 0.00 | 0.00 | 56 | 1008.0 |
| 20260831170334 | 91 | 180 | 1.0 | 3.0 | 0.00 | 0.00 | 0.00 | 57 | 1008.7 |
| 20260831165332 | 90 | 148 | 0.0 | 1.0 | 0.00 | 0.00 | 0.00 | 59 | 1008.3 |
| 20260831164332 | 90 | 108 | 0.0 | 3.0 | 0.00 | 0.00 | 0.00 | 62 | 1008.3 |
| 20260831163333 | 90 | 286 | 0.0 | 3.0 | 0.00 | 0.00 | 0.00 | 61 | 1008.7 |
| 20260831162334 | 88 | 157 | 0.0 | 2.0 | 0.00 | 0.00 | 0.00 | 66 | 1009.0 |
| 20260831161431 | 86 | 322 | 2.0 | 5.0 | 0.00 | 0.00 | 0.00 | 69 | 1009.0 |
| 20260831160431 | 85 | 180 | 3.0 | 6.0 | 0.00 | 0.00 | 0.00 | 71 | 1009.0 |
| 20260831155434 | 85 | 360 | 0.0 | 1.0 | 0.00 | 0.00 | 0.00 | 73 | 1009.0 |
| 20260831153432 | 85 | 132 | 1.0 | 3.0 | 0.00 | 0.00 | 0.00 | 73 | 1009.0 |
| 20260831152432 | 84 | 109 | 1.0 | 4.0 | 0.00 | 0.00 | 0.00 | 75 | 1009.0 |
| 20260831151433 | 82 | 108 | 0.0 | 3.0 | 0.00 | 0.00 | 0.00 | 79 | 1009.0 |
| 20260831145431 | 81 | 157 | 0.0 | 3.0 | 0.00 | 0.00 | 0.00 | 84 | 1009.0 |
| 20260831144433 | 81 | 179 | 2.0 | 5.0 | 0.00 | 0.00 | 0.00 | 86 | 1009.0 |
| 20260831143434 | 81 | 157 | 2.0 | 3.0 | 0.00 | 0.00 | 0.00 | 88 | 1008.7 |
| 20260831142531 | 80 | 145 | 1.0 | 3.0 | 0.00 | 0.00 | 0.00 | 91 | 1009.0 |
| 20260831135535 | 79 | 135 | 0.0 | 0.0 | 0.00 | 0.00 | 0.00 | 96 | 1008.7 |
| 20260831134533 | 79 | 180 | 1.0 | 3.0 | 0.00 | 0.00 | 0.00 | 97 | 1009.0 |
| 20260831132531 | 78 | 180 | 0.0 | 2.0 | 0.00 | 0.00 | 0.00 | 97 | 1009.0 |
| 20260831131532 | 77 | 167 | 2.0 | 5.0 | 0.00 | 0.00 | 0.00 | 95 | 1009.0 |
| 20260831130533 | 77 | 180 | 0.0 | 0.0 | 0.00 | 0.00 | 0.00 | 95 | 1008.7 |
| 20260831125534 | 77 | 180 | 0.0 | 1.0 | 0.00 | 0.00 | 0.00 | 94 | 1008.7 |
| 20260831124632 | 76 | 157 | 0.0 | 0.0 | 0.00 | 0.00 | 0.00 | 93 | 1009.0 |
| 20260831123633 | 76 | 180 | 1.0 | 2.0 | 0.00 | 0.00 | 0.00 | 92 | 1008.7 |
| 20260831122635 | 76 | 157 | 0.0 | 2.0 | 0.00 | 0.00 | 0.00 | 93 | 1008.7 |
| 20260831121632 | 76 | 180 | 1.0 | 3.0 | 0.00 | 0.00 | 0.00 | 93 | 1008.7 |
| 20260831120732 | 76 | 157 | 0.0 | 1.0 | 0.00 | 0.00 | 0.00 | 93 | 1008.7 |
| 20260831115733 | 76 | 160 | 2.0 | 3.0 | 0.00 | 0.00 | 0.00 | 94 | 1008.5 |
| 20260831114732 | 76 | 180 | 0.0 | 0.0 | 0.00 | 0.00 | 0.00 | 94 | 1008.5 |
| 20260831112735 | 77 | 180 | 0.0 | 0.0 | 0.00 | 0.00 | 0.00 | 95 | 1008.7 |
| 20260831111731 | 77 | 157 | 2.0 | 4.0 | 0.00 | 0.00 | 0.00 | 95 | 1008.3 |
| 20260831110732 | 77 | 180 | 0.0 | 0.0 | 0.00 | 0.00 | 0.00 | 95 | 1008.3 |
| 20260831105733 | 77 | 180 | 0.0 | 2.0 | 0.00 | 0.00 | 0.00 | 95 | 1008.3 |
| 20260831102931 | 76 | 180 | 0.0 | 1.0 | 0.00 | 0.00 | 0.00 | 95 | 1008.3 |
| 20260831101933 | 76 | 180 | 1.0 | 5.0 | 0.00 | 0.00 | 0.00 | 95 | 1008.3 |
| 20260831101031 | 76 | 180 | 0.0 | 1.0 | 0.00 | 0.00 | 0.00 | 95 | 1008.3 |
| 20260831100033 | 76 | 229 | 0.0 | 3.0 | 0.00 | 0.00 | 0.00 | 95 | 1008.3 |
| 20260831095131 | 77 | 173 | 3.0 | 8.0 | 0.00 | 0.00 | 0.00 | 96 | 1008.3 |
| 20260831094131 | 77 | 180 | 0.0 | 0.0 | 0.00 | 0.00 | 0.00 | 96 | 1008.3 |
| 20260831093134 | 77 | 152 | 1.0 | 4.0 | 0.00 | 0.00 | 0.00 | 96 | 1008.3 |
| 20260831092131 | 77 | 181 | 3.0 | 7.0 | 0.00 | 0.00 | 0.00 | 96 | 1008.3 |
| 20260831091231 | 77 | 180 | 0.0 | 2.0 | 0.00 | 0.00 | 0.00 | 96 | 1008.3 |
| 20260831090234 | 77 | 19 | 1.0 | 4.0 | 0.00 | 0.00 | 0.00 | 97 | 1008.3 |
| 20260831084232 | 77 | 158 | 1.0 | 5.0 | 0.00 | 0.00 | 0.00 | 97 | 1008.3 |
| 20260831083232 | 77 | 148 | 1.0 | 5.0 | 0.00 | 0.00 | 0.00 | 97 | 1008.3 |
| 20260831082235 | 77 | 180 | 0.0 | 1.0 | 0.00 | 0.00 | 0.00 | 97 | 1008.7 |
| 20260831081233 | 77 | 180 | 0.0 | 3.0 | 0.00 | 0.00 | 0.00 | 96 | 1008.7 |
| 20260831080232 | 77 | 182 | 2.0 | 6.0 | 0.00 | 0.00 | 0.00 | 96 | 1008.3 |
| 20260831075231 | 77 | 179 | 2.0 | 6.0 | 0.00 | 0.00 | 0.00 | 95 | 1008.3 |
| 20260831074233 | 77 | 180 | 2.0 | 5.0 | 0.00 | 0.00 | 0.00 | 95 | 1008.3 |
| 20260831071233 | 78 | 180 | 2.0 | 5.0 | 0.00 | 0.00 | 0.00 | 93 | 1008.3 |
| 20260831070232 | 78 | 180 | 0.0 | 1.0 | 0.00 | 0.00 | 0.00 | 91 | 1008.7 |
| 20260831065232 | 78 | 157 | 2.0 | 4.0 | 0.00 | 0.00 | 0.00 | 90 | 1008.3 |
| 20260831064233 | 79 | 166 | 0.0 | 2.0 | 0.00 | 0.00 | 0.00 | 88 | 1008.3 |
| 20260831063232 | 79 | 137 | 1.0 | 4.0 | 0.00 | 0.00 | 0.00 | 87 | 1008.3 |
| 20260831062232 | 79 | 180 | 1.0 | 6.0 | 0.00 | 0.00 | 0.00 | 86 | 1008.3 |
| 20260831061331 | 79 | 175 | 2.0 | 6.0 | 0.00 | 0.00 | 0.00 | 84 | 1008.3 |
| 20260831055334 | 80 | 132 | 1.0 | 5.0 | 0.00 | 0.00 | 0.00 | 82 | 1007.6 |
| 20260831054432 | 81 | 180 | 1.0 | 5.0 | 0.00 | 0.00 | 0.00 | 80 | 1007.6 |
| 20260831053433 | 81 | 155 | 3.0 | 6.0 | 0.00 | 0.00 | 0.00 | 79 | 1007.6 |